20050422,000023,637056,33.493588,-117.749460,17.228,33.311,1.459,3.475
20050422,000054,637087,33.493536,-117.749515,17.234,33.307,1.498,3.601
20050422,000123,637116,33.493488,-117.749591,17.238,33.305,1.519,3.668
20050422,000153,637146,33.493418,-117.749703,17.242,33.304,1.452,3.455
20050422,000223,637176,33.493338,-117.749830,17.241,33.310,1.505,3.629
20050422,000254,637207,33.493250,-117.749965,17.241,33.313,1.426,3.367
20050422,000323,637236,33.493170,-117.750108,17.240,33.317,1.379,3.213
20050422,000353,637266,33.493111,-117.750260,17.242,33.317,1.359,3.152
20050422,000423,637296,33.493040,-117.750356,17.244,33.317,1.419,3.326
20050422,000453,637326,33.492988,-117.750421,17.249,33.317,1.452,3.433
20050422,000523,637356,33.492923,-117.750465,17.252,33.314,1.505,3.600
20050422,000553,637386,33.492851,-117.750535,17.256,33.313,1.532,3.689
20050422,000623,637416,33.492755,-117.750700,17.259,33.313,1.512,3.630
20050422,000654,637447,33.492671,-117.750970,17.259,33.313,1.386,3.223
20050422,000723,637476,33.492608,-117.751251,17.259,33.315,1.386,3.221
20050422,000753,637506,33.492553,-117.751515,17.261,33.318,1.419,3.320
20050422,000823,637536,33.492495,-117.751761,17.265,33.315,1.379,3.197
20050422,000853,637566,33.492428,-117.752000,17.272,33.312,1.352,3.115
20050422,000923,637596,33.492355,-117.752235,17.284,33.302,1.227,2.737
20050422,000953,637626,33.492286,-117.752463,17.294,33.297,1.168,2.562
20050422,001023,637656,33.492221,-117.752685,17.296,33.299,1.168,2.561
20050422,001053,637686,33.492155,-117.752903,17.298,33.302,1.181,2.597
20050422,001123,637716,33.492093,-117.753120,17.294,33.311,1.128,2.447
20050422,001153,637746,33.492008,-117.753331,17.290,33.317,1.174,2.577
20050422,001224,637777,33.491933,-117.753541,17.278,33.328,1.128,2.444
20050422,001254,637807,33.491863,-117.753753,17.266,33.339,1.121,2.425
20050422,001323,637836,33.491808,-117.753961,17.251,33.351,1.121,2.420
20050422,001353,637866,33.491743,-117.754238,17.246,33.353,1.082,2.314
20050422,001424,637897,33.491671,-117.754570,17.233,33.358,1.017,2.132
20050422,001454,637927,33.491608,-117.754913,17.231,33.355,0.984,2.043
20050422,001524,637957,33.491538,-117.755281,17.226,33.355,0.925,1.891
20050422,001553,637986,33.491485,-117.755645,17.215,33.359,0.912,1.860
20050422,001623,638016,33.491431,-117.755850,17.204,33.362,0.880,1.773
20050422,001653,638046,33.491376,-117.755928,17.197,33.361,0.860,1.720
20050422,001724,638077,33.491323,-117.756090,17.180,33.369,0.848,1.691
20050422,001754,638107,33.491258,-117.756360,17.177,33.366,0.848,1.689
20050422,001824,638137,33.491208,-117.756703,17.141,33.389,0.815,1.608
20050422,001854,638167,33.491143,-117.757103,17.114,33.404,0.725,1.392
20050422,001924,638197,33.491085,-117.757513,17.078,33.423,0.718,1.376
20050422,001954,638227,33.491046,-117.757935,17.045,33.438,0.699,1.333
20050422,002024,638257,33.490993,-117.758373,17.024,33.440,0.731,1.404
20050422,002054,638287,33.490950,-117.758816,17.013,33.434,0.731,1.405
20050422,002124,638317,33.490976,-117.759241,16.985,33.440,0.674,1.269
20050422,002154,638347,33.491040,-117.759603,16.976,33.428,0.667,1.256
20050422,002224,638377,33.491095,-117.759861,16.967,33.418,0.642,1.196
20050422,002254,638407,33.491151,-117.760060,16.949,33.416,0.622,1.154
20050422,002324,638437,33.491258,-117.760456,16.933,33.414,0.584,1.071
20050422,002355,638468,33.491380,-117.761155,16.916,33.412,0.603,1.111
20050422,002424,638497,33.491508,-117.761925,16.907,33.405,0.584,1.066
20050422,002455,638528,33.491676,-117.762798,16.904,33.392,0.591,1.081
20050422,002525,638558,33.491853,-117.763680,16.914,33.369,0.610,1.122
20050422,002555,638588,33.492091,-117.764796,16.924,33.351,0.578,1.054
20050422,002625,638618,33.492406,-117.766191,16.936,33.332,0.597,1.092
20050422,002655,638648,33.492765,-117.767773,16.944,33.321,0.565,1.025
20050422,002725,638678,33.493151,-117.769438,16.956,33.307,0.546,0.983
20050422,002755,638708,33.493545,-117.771138,16.960,33.303,0.552,0.996
20050422,002825,638738,33.493943,-117.772836,16.975,33.293,0.514,0.918
20050422,002856,638769,33.494345,-117.774540,16.982,33.290,0.495,0.878
20050422,002925,638798,33.494736,-117.776240,16.990,33.287,0.477,0.839
20050422,002955,638828,33.495126,-117.777943,16.995,33.289,0.464,0.814
20050422,003025,638858,33.495528,-117.779648,16.997,33.292,0.458,0.800
20050422,003055,638888,33.495930,-117.781355,17.001,33.295,0.451,0.786
20050422,003124,638917,33.496325,-117.783056,17.007,33.296,0.433,0.750
20050422,003155,638948,33.496725,-117.784761,17.010,33.296,0.407,0.702
20050422,003224,638977,33.497106,-117.786411,17.014,33.298,0.395,0.677
20050422,003255,639008,33.497518,-117.788186,17.015,33.301,0.370,0.631
20050422,003325,639038,33.497916,-117.789908,17.010,33.310,0.383,0.653
20050422,003356,639069,33.498316,-117.791620,16.990,33.330,0.345,0.585
20050422,003425,639098,33.498716,-117.793333,16.992,33.330,0.358,0.607
20050422,003455,639128,33.499120,-117.795048,16.990,33.332,0.345,0.584
20050422,003525,639158,33.499525,-117.796775,16.990,33.330,0.339,0.573
20050422,003555,639188,33.499936,-117.798498,16.981,33.337,0.339,0.573
20050422,003626,639219,33.500566,-117.800086,16.958,33.352,0.327,0.550
20050422,003655,639248,33.501303,-117.801635,16.949,33.357,0.333,0.559
20050422,003725,639278,33.502033,-117.803196,16.943,33.359,0.327,0.549
20050422,003755,639308,33.502755,-117.804761,16.909,33.381,0.320,0.537
20050422,003825,639338,33.503501,-117.806326,16.892,33.387,0.333,0.558
20050422,003855,639368,33.504233,-117.807893,16.819,33.437,0.314,0.525
20050422,003925,639398,33.504966,-117.809458,16.791,33.446,0.314,0.525
20050422,003955,639428,33.505691,-117.811028,16.770,33.446,0.314,0.524
20050422,004025,639458,33.506426,-117.812600,16.696,33.484,0.333,0.556
20050422,004055,639488,33.507165,-117.814168,16.676,33.477,0.333,0.556
20050422,004126,639519,33.507895,-117.815738,16.618,33.500,0.320,0.533
20050422,004155,639548,33.508636,-117.817320,16.589,33.494,0.333,0.555
20050422,004225,639578,33.509371,-117.818893,16.568,33.483,0.327,0.543
20050422,004255,639608,33.510098,-117.820458,16.558,33.465,0.320,0.532
20050422,004325,639638,33.510825,-117.822026,16.540,33.455,0.320,0.531
20050422,004356,639669,33.511555,-117.823590,16.521,33.447,0.320,0.531
20050422,004425,639698,33.512286,-117.825141,16.527,33.422,0.320,0.531
20050422,004455,639728,33.513011,-117.826686,16.495,33.429,0.320,0.530
20050422,004525,639758,33.514096,-117.827673,16.492,33.413,0.327,0.541
20050422,004555,639788,33.515471,-117.828173,16.453,33.428,0.320,0.527
20050422,004625,639818,33.516890,-117.828706,16.462,33.404,0.314,0.515
20050422,004655,639848,33.518335,-117.829230,16.446,33.401,0.314,0.515
20050422,004725,639878,33.519778,-117.829765,16.433,33.396,0.314,0.513
20050422,004755,639908,33.521190,-117.830365,16.428,33.388,0.314,0.514
20050422,004825,639938,33.522381,-117.831370,16.421,33.382,0.314,0.513
20050422,004855,639968,33.523321,-117.832688,16.410,33.382,0.308,0.504
20050422,004925,639998,33.523931,-117.834243,16.396,33.383,0.339,0.557
20050422,004955,640028,33.524581,-117.835856,16.396,33.375,0.333,0.547
20050422,005025,640058,33.525240,-117.837485,16.407,33.357,0.345,0.567
20050422,005055,640088,33.525908,-117.839103,16.430,33.332,0.339,0.556
20050422,005125,640118,33.526581,-117.840721,16.463,33.298,0.351,0.577
20050422,005155,640148,33.527265,-117.842341,16.492,33.275,0.358,0.587
20050422,005225,640178,33.527951,-117.843955,16.537,33.245,0.370,0.608
20050422,005255,640208,33.528630,-117.845571,16.557,33.239,0.383,0.631
20050422,005325,640238,33.529313,-117.847195,16.591,33.227,0.389,0.641
20050422,005356,640269,33.529990,-117.848811,16.660,33.188,0.407,0.673
20050422,005425,640298,33.530686,-117.850438,16.676,33.196,0.414,0.684
20050422,005456,640329,33.531378,-117.852063,16.686,33.210,0.407,0.672
20050422,005525,640358,33.532063,-117.853680,16.697,33.225,0.420,0.693
20050422,005555,640388,33.532756,-117.855305,16.691,33.252,0.389,0.636
20050422,005625,640418,33.533446,-117.856936,16.686,33.274,0.395,0.646
20050422,005655,640448,33.534133,-117.858566,16.669,33.301,0.401,0.657
20050422,005725,640478,33.534815,-117.860181,16.671,33.309,0.414,0.679
20050422,005755,640508,33.535506,-117.861808,16.691,33.297,0.451,0.747
20050422,005825,640538,33.536185,-117.863421,16.718,33.279,0.451,0.744
20050422,005855,640568,33.536878,-117.865051,16.762,33.249,0.458,0.756
20050422,005926,640599,33.537560,-117.866668,16.776,33.247,0.464,0.767
20050422,005955,640628,33.538243,-117.868298,16.793,33.246,0.477,0.789
20050422,010025,640658,33.538923,-117.869913,16.817,33.240,0.477,0.788
20050422,010055,640688,33.539613,-117.871535,16.825,33.248,0.477,0.787
20050422,010125,640718,33.540295,-117.873146,16.842,33.248,0.464,0.764
20050422,010155,640748,33.540983,-117.874773,16.850,33.258,0.458,0.751
20050422,010225,640778,33.541658,-117.876383,16.857,33.267,0.451,0.738
20050422,010255,640808,33.542340,-117.877993,16.861,33.276,0.451,0.737
20050422,010325,640838,33.543016,-117.879591,16.860,33.287,0.470,0.772
20050422,010355,640868,33.543695,-117.881201,16.854,33.302,0.451,0.735
20050422,010425,640898,33.544378,-117.882818,16.843,33.317,0.414,0.666
20050422,010455,640928,33.545055,-117.884435,16.818,33.343,0.407,0.654
20050422,010525,640958,33.545738,-117.886046,16.793,33.362,0.395,0.631
20050422,010555,640988,33.546423,-117.887661,16.745,33.401,0.383,0.608
20050422,010626,641019,33.547116,-117.889276,16.689,33.440,0.364,0.574
20050422,010655,641048,33.547798,-117.890891,16.667,33.447,0.351,0.552
20050422,010725,641078,33.548475,-117.892506,16.626,33.466,0.351,0.552
20050422,010755,641108,33.549158,-117.894126,16.569,33.494,0.333,0.520
20050422,010826,641139,33.549838,-117.895745,16.514,33.516,0.333,0.519
20050422,010855,641168,33.550515,-117.897358,16.461,33.532,0.333,0.518
20050422,010925,641198,33.551183,-117.898970,16.470,33.495,0.333,0.517
20050422,010955,641228,33.551853,-117.900581,16.410,33.512,0.327,0.507
20050422,011025,641258,33.552535,-117.902193,16.347,33.531,0.327,0.506
20050422,011055,641288,33.553215,-117.903810,16.357,33.491,0.327,0.504
20050422,011126,641319,33.553881,-117.905413,16.313,33.495,0.320,0.493
20050422,011155,641348,33.554570,-117.907026,16.291,33.482,0.327,0.502
20050422,011225,641378,33.555233,-117.908630,16.294,33.450,0.327,0.503
20050422,011255,641408,33.555910,-117.910241,16.225,33.480,0.327,0.502
20050422,011325,641438,33.556583,-117.911848,16.201,33.473,0.327,0.502
20050422,011355,641468,33.557251,-117.913445,16.165,33.477,0.327,0.501
20050422,011425,641498,33.557928,-117.915051,16.132,33.478,0.333,0.510
20050422,011455,641528,33.558605,-117.916651,16.103,33.475,0.327,0.498
20050422,011525,641558,33.559276,-117.918250,16.067,33.478,0.339,0.517
20050422,011555,641588,33.559943,-117.919863,16.049,33.469,0.339,0.516
20050422,011625,641618,33.560616,-117.921466,16.037,33.453,0.333,0.505
20050422,011655,641648,33.561276,-117.923068,16.049,33.419,0.333,0.504
20050422,011725,641678,33.561955,-117.924661,16.055,33.393,0.327,0.492
20050422,011755,641708,33.562623,-117.926261,16.056,33.374,0.327,0.492
20050422,011825,641738,33.563291,-117.927855,16.082,33.338,0.333,0.501
20050422,011855,641768,33.563958,-117.929455,16.104,33.310,0.333,0.500
20050422,011925,641798,33.564626,-117.931048,16.130,33.284,0.351,0.529
20050422,011955,641828,33.565288,-117.932630,16.152,33.264,0.345,0.518
20050422,012025,641858,33.565946,-117.934210,16.166,33.259,0.358,0.537
20050422,012055,641888,33.566601,-117.935775,16.176,33.258,0.364,0.545
20050422,012125,641918,33.567261,-117.937341,16.180,33.263,0.389,0.584
20050422,012155,641948,33.567951,-117.938890,16.205,33.253,0.451,0.686
20050422,012225,641978,33.568706,-117.940400,16.235,33.235,0.445,0.675
20050422,012255,642008,33.569456,-117.941905,16.261,33.223,0.445,0.673
20050422,012325,642038,33.570216,-117.943405,16.310,33.196,0.470,0.714
20050422,012355,642068,33.570725,-117.944965,16.320,33.203,0.483,0.734
20050422,012425,642098,33.570686,-117.946660,16.336,33.207,0.483,0.735
20050422,012455,642128,33.570658,-117.948426,16.342,33.218,0.508,0.776
20050422,012525,642158,33.570803,-117.950185,16.351,33.225,0.521,0.796
20050422,012555,642188,33.571116,-117.951890,16.364,33.228,0.521,0.775
20050422,012625,642218,33.571980,-117.953235,16.377,33.228,0.521,0.792
20050422,012655,642248,33.572931,-117.954560,16.385,33.231,0.533,0.813
20050422,012725,642278,33.573875,-117.955886,16.407,33.221,0.559,0.854
20050422,012755,642308,33.574825,-117.957220,16.423,33.217,0.565,0.864
20050422,012826,642339,33.575780,-117.958568,16.433,33.217,0.565,0.862
20050422,012855,642368,33.576751,-117.959908,16.442,33.222,0.552,0.838
20050422,012925,642398,33.577708,-117.961261,16.440,33.233,0.552,0.835
20050422,012955,642428,33.578673,-117.962615,16.437,33.244,0.559,0.844
20050422,013025,642458,33.579640,-117.963976,16.426,33.261,0.546,0.821
20050422,013055,642488,33.580600,-117.965323,16.415,33.273,0.540,0.808
20050422,013125,642518,33.581561,-117.966683,16.416,33.276,0.565,0.850
20050422,013155,642548,33.582516,-117.968030,16.414,33.277,0.571,0.860
20050422,013226,642579,33.583516,-117.969436,16.414,33.275,0.578,0.868
20050422,013255,642608,33.584443,-117.970735,16.410,33.275,0.591,0.889
20050422,013325,642638,33.585410,-117.972078,16.404,33.280,0.584,0.877
20050422,013356,642669,33.586405,-117.973475,16.405,33.276,0.603,0.908
20050422,013425,642698,33.587338,-117.974775,16.389,33.285,0.603,0.906
20050422,013456,642729,33.588333,-117.976161,16.394,33.279,0.610,0.914
20050422,013526,642759,33.589301,-117.977498,16.382,33.286,0.622,0.936
20050422,013555,642788,33.590226,-117.978800,16.384,33.281,0.642,0.968
20050422,013626,642819,33.591183,-117.980131,16.372,33.287,0.654,0.988
20050422,013655,642848,33.592140,-117.981471,16.375,33.282,0.686,1.044
20050422,013725,642878,33.593098,-117.982808,16.385,33.271,0.693,1.054
20050422,013756,642909,33.594086,-117.984186,16.384,33.270,0.686,1.040
20050422,013826,642939,33.595043,-117.985525,16.383,33.270,0.674,1.014
20050422,013856,642969,33.596001,-117.986855,16.380,33.273,0.705,1.069
20050422,013926,642999,33.596950,-117.988175,16.378,33.276,0.712,1.079
20050422,013956,643029,33.597896,-117.989493,16.374,33.279,0.725,1.100
20050422,014026,643059,33.598851,-117.990825,16.370,33.282,0.705,1.062
20050422,014056,643089,33.599806,-117.992155,16.358,33.290,0.686,1.025
20050422,014125,643118,33.600731,-117.993431,16.354,33.293,0.718,1.080
20050422,014155,643148,33.601675,-117.994756,16.338,33.303,0.776,1.184
20050422,014226,643179,33.602656,-117.996138,16.349,33.289,0.867,1.353
20050422,014256,643209,33.603616,-117.997471,16.364,33.274,0.880,1.376
20050422,014326,643239,33.604586,-117.998806,16.387,33.251,0.932,1.475
20050422,014356,643269,33.605541,-118.000148,16.410,33.231,0.964,1.537
20050422,014426,643299,33.606503,-118.001485,16.422,33.220,0.984,1.574
20050422,014456,643329,33.607473,-118.002823,16.430,33.212,1.004,1.612
20050422,014526,643359,33.608438,-118.004167,16.433,33.207,1.056,1.714
20050422,014557,643390,33.609400,-118.005508,16.432,33.205,1.128,1.862
20050422,014626,643419,33.610365,-118.006850,16.438,33.198,1.207,2.029
20050422,014656,643449,33.611325,-118.008182,16.453,33.183,1.299,2.230
20050422,014726,643479,33.612286,-118.009518,16.466,33.171,1.412,2.486
20050422,014756,643509,33.613243,-118.010838,16.492,33.149,1.452,2.574
20050422,014826,643539,33.614201,-118.012163,16.511,33.132,1.539,2.780
20050422,014856,643569,33.615180,-118.013493,16.547,33.109,1.619,2.970
20050422,014926,643599,33.616155,-118.014832,16.556,33.109,1.652,3.046
20050422,014956,643629,33.617130,-118.016163,16.579,33.104,1.713,3.191
20050422,015027,643660,33.618100,-118.017497,16.589,33.110,1.800,3.407
20050422,015056,643689,33.619068,-118.018837,16.598,33.116,1.800,3.395
20050422,015126,643719,33.620035,-118.020175,16.608,33.123,1.840,3.493
20050422,015157,643750,33.621003,-118.021512,16.617,33.129,1.847,3.502
20050422,015226,643779,33.621976,-118.022842,16.615,33.143,1.847,3.486
20050422,015256,643809,33.622948,-118.024173,16.617,33.154,1.921,3.681
20050422,015326,643839,33.623915,-118.025500,16.618,33.163,1.921,3.668
20050422,015356,643869,33.624883,-118.026822,16.618,33.172,1.941,3.712
20050422,015426,643899,33.625850,-118.028153,16.620,33.177,1.988,3.826
20050422,015456,643929,33.626821,-118.029473,16.623,33.181,1.948,3.708
20050422,015526,643959,33.627800,-118.030792,16.629,33.182,1.948,3.693
20050422,015556,643989,33.628781,-118.032113,16.633,33.184,1.880,3.500
20050422,015626,644019,33.629758,-118.033447,16.627,33.192,1.800,3.287
20050422,015656,644049,33.630735,-118.034783,16.614,33.208,1.753,3.162
20050422,015726,644079,33.631886,-118.035885,16.602,33.220,1.713,3.059
20050422,015756,644109,33.633070,-118.036957,16.588,33.234,1.625,2.835
20050422,015826,644139,33.634261,-118.038035,16.546,33.268,1.565,2.680
20050422,015856,644169,33.635441,-118.039110,16.518,33.288,1.559,2.661
20050422,015927,644200,33.636625,-118.040185,16.494,33.301,1.532,2.592
20050422,015956,644229,33.637800,-118.041258,16.479,33.304,1.519,2.554
20050422,020026,644259,33.638801,-118.042518,16.475,33.301,1.412,2.304
20050422,020056,644289,33.639726,-118.043873,16.475,33.290,1.333,2.131
20050422,020127,644320,33.640670,-118.045250,16.455,33.293,1.194,1.842
20050422,020156,644349,33.641615,-118.046613,16.417,33.316,1.102,1.655
20050422,020226,644379,33.642550,-118.047978,16.394,33.322,1.036,1.524
20050422,020256,644409,33.643493,-118.049343,16.393,33.310,1.063,1.570
20050422,020326,644439,33.644423,-118.050718,16.325,33.353,1.075,1.591
20050422,020357,644470,33.645361,-118.052087,16.310,33.348,1.115,1.663
20050422,020426,644499,33.646296,-118.053463,16.283,33.356,1.135,1.696
20050422,020456,644529,33.647235,-118.054833,16.265,33.355,1.194,1.808
20050422,020526,644559,33.648171,-118.056217,16.249,33.350,1.227,1.869
20050422,020556,644589,33.649113,-118.057578,16.236,33.343,1.267,1.944
20050422,020627,644620,33.650048,-118.058947,16.223,33.339,1.227,1.862
20050422,020656,644649,33.650981,-118.060317,16.200,33.342,1.227,1.857
20050422,020726,644679,33.651926,-118.061692,16.199,33.328,1.187,1.775
20050422,020756,644709,33.652858,-118.063067,16.190,33.327,1.141,1.679
20050422,020826,644739,33.653795,-118.064437,16.178,33.323,1.121,1.639
20050422,020856,644769,33.654735,-118.065818,16.183,33.312,1.128,1.650
20050422,020926,644799,33.655718,-118.067162,16.168,33.316,1.128,1.646
20050422,020956,644829,33.656696,-118.068507,16.159,33.318,1.128,1.643
20050422,021026,644859,33.657680,-118.069865,16.136,33.331,1.148,1.677
20050422,021056,644889,33.658663,-118.071223,16.131,33.330,1.154,1.687
20050422,021126,644919,33.659653,-118.072582,16.122,33.330,1.128,1.633
20050422,021156,644949,33.660635,-118.073942,16.107,33.333,1.095,1.570
20050422,021226,644979,33.661618,-118.075292,16.089,33.340,1.102,1.580
20050422,021256,645009,33.662591,-118.076650,16.082,33.339,1.089,1.553
20050422,021326,645039,33.663575,-118.078000,16.075,33.338,1.095,1.563
20050422,021357,645070,33.664551,-118.079350,16.071,33.337,1.095,1.561
20050422,021426,645099,33.665535,-118.080703,16.066,33.333,1.135,1.632
20050422,021456,645129,33.666511,-118.082048,16.053,33.338,1.141,1.643
20050422,021526,645159,33.667488,-118.083398,16.057,33.331,1.168,1.690
20050422,021556,645189,33.668475,-118.084753,16.045,33.336,1.168,1.687
20050422,021626,645219,33.669425,-118.086143,16.037,33.340,1.168,1.685
20050422,021656,645249,33.670365,-118.087542,16.018,33.352,1.214,1.771
20050422,021726,645279,33.671308,-118.088930,16.020,33.345,1.220,1.781
20050422,021756,645309,33.672223,-118.090285,15.999,33.358,1.214,1.767
20050422,021826,645339,33.672773,-118.091182,15.989,33.361,1.207,1.752
20050422,021856,645369,33.672938,-118.091793,15.981,33.363,1.181,1.700
20050422,021926,645399,33.672876,-118.092173,15.974,33.364,1.194,1.724
20050422,021956,645429,33.672718,-118.092357,15.980,33.352,1.240,1.810
20050422,022027,645460,33.672511,-118.092445,15.964,33.360,1.200,1.734
20050422,022056,645489,33.672313,-118.092548,15.965,33.353,1.194,1.720
20050422,022126,645519,33.672180,-118.092698,15.968,33.344,1.220,1.769
20050422,022156,645549,33.672110,-118.092862,15.965,33.344,1.214,1.755
20050422,022226,645579,33.672051,-118.093037,15.968,33.339,1.194,1.716
20050422,022256,645609,33.672003,-118.093212,15.968,33.336,1.207,1.740
20050422,022326,645639,33.671940,-118.093382,15.954,33.343,1.227,1.777
20050422,022356,645669,33.671865,-118.093548,15.951,33.342,1.280,1.877
20050422,022426,645699,33.671791,-118.093710,15.946,33.341,1.240,1.800
20050422,022456,645729,33.671726,-118.093880,15.942,33.340,1.240,1.799
20050422,022526,645759,33.671671,-118.094053,15.939,33.338,1.220,1.760
20050422,022556,645789,33.671631,-118.094233,15.936,33.337,1.286,1.885
20050422,022627,645820,33.671588,-118.094415,15.934,33.332,1.240,1.796
20050422,022656,645849,33.671548,-118.094585,15.927,33.335,1.240,1.795
20050422,022726,645879,33.671483,-118.094755,15.930,33.329,1.260,1.832
20050422,022756,645909,33.671411,-118.094912,15.915,33.337,1.267,1.844
20050422,022826,645939,33.671340,-118.095083,15.913,33.337,1.280,1.869
20050422,022856,645969,33.671296,-118.095260,15.903,33.342,1.240,1.792
20050422,022927,646000,33.671263,-118.095427,15.901,33.342,1.286,1.880
20050422,022957,646030,33.671241,-118.095558,15.903,33.338,1.253,1.816
20050422,023026,646059,33.671216,-118.095675,15.910,33.331,1.260,1.828
20050422,023056,646089,33.671190,-118.095805,15.901,33.336,1.286,1.878
20050422,023126,646119,33.671131,-118.095928,15.892,33.343,1.280,1.865
20050422,023157,646150,33.671050,-118.096060,15.896,33.338,1.260,1.827
20050422,023226,646179,33.670981,-118.096210,15.890,33.342,1.280,1.864
20050422,023256,646209,33.670941,-118.096387,15.889,33.340,1.299,1.902
20050422,023326,646239,33.670920,-118.096512,15.885,33.343,1.253,1.813
20050422,023356,646269,33.670920,-118.096605,15.886,33.341,1.247,1.800
20050422,023426,646299,33.670920,-118.096708,15.885,33.341,1.267,1.837
20050422,023456,646329,33.670908,-118.096817,15.887,33.338,1.286,1.874
20050422,023526,646359,33.670860,-118.096918,15.887,33.338,1.260,1.824
20050422,023556,646389,33.670778,-118.096993,15.888,33.337,1.293,1.886
20050422,023626,646419,33.670650,-118.097033,15.889,33.337,1.286,1.873
20050422,023656,646449,33.670520,-118.097053,15.885,33.339,1.267,1.835
20050422,023727,646480,33.670393,-118.097020,15.885,33.340,1.273,1.848
20050422,023756,646509,33.670266,-118.096983,15.882,33.342,1.247,1.797
20050422,023826,646539,33.670101,-118.096998,15.881,33.343,1.280,1.860
20050422,023857,646570,33.669933,-118.097080,15.882,33.341,1.306,1.911
20050422,023926,646599,33.669801,-118.097202,15.885,33.339,1.260,1.822
20050422,023956,646629,33.669708,-118.097383,15.882,33.342,1.260,1.821
20050422,024026,646659,33.669615,-118.097597,15.884,33.340,1.280,1.859
20050422,024056,646689,33.669498,-118.097842,15.882,33.342,1.299,1.897
20050422,024126,646719,33.669365,-118.098103,15.888,33.338,1.286,1.871
20050422,024156,646749,33.669220,-118.098355,15.885,33.340,1.253,1.808
20050422,024226,646779,33.669036,-118.098535,15.888,33.339,1.286,1.871
20050422,024256,646809,33.668816,-118.098667,15.888,33.339,1.233,1.770
20050422,024326,646839,33.668608,-118.098830,15.891,33.337,1.233,1.770
20050422,024356,646869,33.668405,-118.099002,15.893,33.338,1.240,1.783
20050422,024426,646899,33.668238,-118.099128,15.900,33.331,1.293,1.883
20050422,024456,646929,33.668083,-118.099247,15.899,33.335,1.214,1.733
20050422,024526,646959,33.667913,-118.099347,15.899,33.336,1.227,1.758
20050422,024556,646989,33.667740,-118.099438,15.899,33.337,1.247,1.795
20050422,024626,647019,33.667541,-118.099542,15.901,33.338,1.227,1.758